Tracking 29933 objects as of 2-Dec-2024
HD Live streaming from Space Station
objects crossing your sky now

STARLINK-6207

Track STARLINK-6207 now!
10-day predictions
STARLINK-6207 is classified as:


NORAD ID: 56900
Int'l Code: 2023-083AA
Perigee: 565.7 km
Apogee: 566.8 km
Inclination: 43.0 °
Period: 95.8 minutes
Semi major axis: 6937 km
RCS: Unknown
Launch date: June 12, 2023
Source: United States (US)
Launch site: AIR FORCE EASTERN TEST RANGE (AFETR)
Your satellite tracking list
Your tracking list is empty




NASA's NSSDC Master Catalog

Two Line Element Set (TLE):
1 56900U 23083AA  24336.93204795 -.00000200  00000-0  23764-6 0  9994
2 56900  43.0048  63.7878 0000751 264.0591  96.0165 15.02531280 82172
Source of the keplerian elements: AFSPC